Regional Weather Roundup
Issued by NWS

Home | Current Version | Previous Version | Graphics & Text | Print | Product List | Glossary On
Versions: 1 2 3 4 5 6 7 8 9 10 11 12 13 14 15 16 17 18 19 20 21 22 23 24 25 26 27 28 29 30 31 32 33 34 35 36 37 38 39 40 41 42 43 44 45 46 47 48 49 50
000
ASUS45 KBOI 021610
RWRID

IDAHO REGIONAL WEATHER ROUNDUP
NATIONAL WEATHER SERVICE BOISE ID
1000 AM MDT SUN AUG 02 2015

NOTE: "FAIR" INDICATES FEW OR NO CLOUDS BELOW 12000 FEET
WITH NO SIGNIFICANT WEATHER AND/OR OBSTRUCTIONS TO VISIBILITY

IDZ012-014-021700-
SOUTHWEST IDAHO


CITY           SKY/WX    TMP DP  RH WIND       PRES   REMARKS
BOISE          SUNNY     82  43  25 NE5       29.93S
CALDWELL       SUNNY     75  46  35 CALM      29.93S
MOUNTAIN HOME  SUNNY     80  38  22 E6        29.94S
$$

IDZ016-017-021700-
SOUTHCENTRAL IDAHO


CITY           SKY/WX    TMP DP  RH WIND       PRES   REMARKS
BURLEY         SUNNY     77  48  35 CALM      30.03R
JEROME         SUNNY     74  36  25 S5        30.04R
TWIN FALLS     SUNNY     87  29  12 SW9       30.01R
$$

IDZ019>023-021700-
SOUTHEAST IDAHO


CITY           SKY/WX    TMP DP  RH WIND       PRES   REMARKS
IDAHO FALLS    SUNNY     74  44  34 NE8       30.09S
POCATELLO      SUNNY     72  44  36 VRB3      30.07S
REXBURG        SUNNY     70  43  37 CALM      30.11S
$$

IDZ006-010-011-018-031-032-021700-
CENTRAL IDAHO MOUNTAINS


CITY           SKY/WX    TMP DP  RH WIND       PRES   REMARKS
MCCALL         SUNNY     68  43  40 CALM      30.10S
HAILEY         MOSUNNY   75  43  31 NW7       30.13S
STANLEY          N/A     62  35  36 CALM      30.26F
SALMON         MOSUNNY   64  45  48 CALM      30.10F
CHALLIS        MOSUNNY   69  41  36 NE3       30.15F
$$

IDZ002-004-006-007-026-021700-
NORTHERN IDAHO


CITY           SKY/WX    TMP DP  RH WIND       PRES   REMARKS
LEWISTON       MOSUNNY   74  39  28 VRB3      29.92S
LOWELL           N/A     67  49  52 CALM      30.00F
COEUR D`ALENE  MOSUNNY   73  43  33 NE3       29.95S
MULLAN PASS    MOSUNNY   71  24  17 CALM      30.19R
$$


USA.gov is the U.S. government's official web portal to all federal, state and local government web resources and services.